Preview of NWS' New Version of Forecast
This preview is not operational and should not be used for support decisions.

Regional Weather Roundup (RWR)

Issued by National Weather Service (NWS)

                            
000
ASUS42 KTBW 212318
RWRFL 
FLORIDA REGIONAL WEATHER ROUNDUP
NATIONAL WEATHER SERVICE TAMPA BAY RUSKIN FL
700 PM EDT SAT SEP 21 2019

NOTE: "FAIR" INDICATES FEW OR NO CLOUDS BELOW 12,000 FEET WITH NO
SIGNIFICANT WEATHER AND/OR OBSTRUCTIONS TO VISIBILITY.

FLZ001>010-012>015-112-114-115-220000-
PANHANDLE FLORIDA
  
CITY           SKY/WX    TMP DP  RH WIND       PRES   REMARKS
PENSACOLA      FAIR      83  67  58 SE8       30.12S                  
PENSACOLA NAS  FAIR      83  66  56 SE10      30.11F                  
MILTON NAS     FAIR      83  65  54 SW8       30.12S                  
CRESTVIEW      MOCLDY    87  58  37 E8        30.13S                  
DUKE FIELD     FAIR      85  62  45 S5        30.11S                  
VALPARAISO     FAIR      85  64  48 S9        30.11S                  
MARY ESTHER    PTCLDY    84  67  56 SE10      30.10S                  
PANAMA CITY    FAIR      88  57  34 E7        30.11S                  
TYNDALL AFB    FAIR      86  60  41 E5        30.10S                  
APALACHICOLA   FAIR      85  63  47 E7        30.11S                  

STATION/POSITION SKY/WX   TEMP    WIND        PRES    WAVE   SWELL
                          AIR SEA DIR/SP/G            HT/PER HT/PER
                          (F)     (DEG/KT/KT) (MB)    (FT/S) (FT/S)
30.1N   87.6W              82 85  130/ 14/ 17 1019.9F   7/ 8   5/ 8
29.2N   88.2W              83      90/ 17/ 21 1019.2F   8/ 8
28.8N   86.0W                 85   90/ 17/ 21 1019.2R   6/ 8
PANAMA CITY BEAC                  160/  6/  7   N/A
TOWER C                    82      70/ 13/ 15 1019.9R
28.5N   84.5W              83      50/ 14/ 16 1019.4R   4/ 6   2/12

$$
FLZ011-016>038-118-127-128-134-139-239-220000-
NORTH FLORIDA
  
CITY           SKY/WX    TMP DP  RH WIND       PRES   REMARKS
MARIANNA       FAIR      86  58  38 SE6       30.13R                  
TALLAHASSEE    FAIR      87  62  43 E12       30.13R                  
PERRY          FAIR      85  62  44 E7        30.13S                  
LIVE OAK       PTCLDY    82  63  51 NE8       30.15R                  
CROSS CITY       N/A     82  64  53 E6        30.13R                  
LAKE CITY      FAIR      79  63  57 E8        30.17R                  
GAINESVILLE    FAIR      80  63  55 E13       30.18R                  
WILLISTON      CLOUDY    81  64  57 E7        30.14R                  
PALATKA        FAIR      77  63  61 E9G16     30.16S                  
MAYPORT NAS    MOCLDY    81  64  56 E14       30.18R                  
JACKSONVILLE   FAIR      79  63  57 E13       30.18R                  
JAX NAS        MOCLDY    80  63  55 E13       30.18R                  
JAX CECIL      MOCLDY    79  66  65 E12       30.17R                  
FERNANDINA BEA MOCLDY    79  66  63 E13       30.19R                  
ST AUGUSTINE   FAIR      81  32  17 E15       30.18R                  
PALM COAST     MOCLDY    79  64  61 E9        30.16R                  

STATION/POSITION SKY/WX   TEMP    WIND        PRES    WAVE   SWELL
                          AIR SEA DIR/SP/G            HT/PER HT/PER
                          (F)     (DEG/KT/KT) (MB)    (FT/S) (FT/S)
SHELL POINT      NOT AVBL
KEATON BEACH               83      70/  7/  9 1020.3R
CEDAR KEY                  82      70/ 12/ 14 1020.1R
FERNANDINA                 85 81   50/  5/ 11 1022.9R
30.7N   81.3W                 81                N/A     4/15   2/15
MAYPORT                    81 81   70/ 13/ 16 1022.3
31.4N   80.9W              80 81   90/ 12/ 16 1022.3S   4/ 6   3/ 6
ST AUGUSTINE               80 81   70/ 14/ 14 1021.6R

$$
FLZ040-043>046-052-053-057-058-063-144-220000-
INTERIOR CENTRAL FLORIDA
  
CITY           SKY/WX    TMP DP  RH WIND       PRES   REMARKS
OCALA          MOCLDY    81  64  56 E13       30.14R                  
LEESBURG       FAIR      81  64  56 E10       30.14S                  
SANFORD        MOCLDY    79  66  64 NE10      30.13S                  
ORLANDO EXEC   FAIR      80  66  62 NE13      30.13R                  
ORLANDO INTL   MOCLDY    80  66  62 NE15      30.12S                  
KISSIMMEE      MOCLDY    81  68  64 E15       30.13R                  
WINTER HAVEN   MOCLDY    84  67  56 E14       30.12R                  
LAKELAND       PTCLDY    81  66  61 E14G23    30.11R                  
BARTOW         MOCLDY    81  68  65 NE14G22   30.10R                  
SEBRING        FAIR      81  69  67 NE16      30.09S                  
OKEECHOBEE     FAIR      79  70  73 E9G16     30.08R                  

$$
FLZ041-047-054-059-064-141-147-220000-
EAST CENTRAL FLORIDA
  
CITY           SKY/WX    TMP DP  RH WIND       PRES   REMARKS
ORMOND BEACH   PTCLDY    81  63  54 E9G16     30.15S                  
DAYTONA BEACH  FAIR      79  64  60 E7        30.15S                  
DELAND         FAIR      79  64  61 NE8       30.14F                  
NEW SMYRNA BEA PTCLDY    81  64  57 N13       30.15F                  
JFK SPACE CTR  MOCLDY    79  55  43 E10       30.13R                  
TITUSVILLE     PTCLDY    84  70  61 E14G23    30.13S                  
CAPE CANAVERAL FAIR      80  70  72 E10       30.11S                  
PATRICK AFB    FAIR      81  72  76 E20       30.11R                  
MELBOURNE      FAIR      81  69  67 E17       30.10S                  
VERO BEACH     CLOUDY    82  69  64 E17       30.10R                  
FT PIERCE      CLOUDY    81  68  64 E13G23    30.08S                  
STUART         MOCLDY    81  68  65 E18       30.09R                  

STATION/POSITION SKY/WX   TEMP    WIND        PRES    WAVE   SWELL
                          AIR SEA DIR/SP/G            HT/PER HT/PER
                          (F)     (DEG/KT/KT) (MB)    (FT/S) (FT/S)
28.5N   80.2W              80 83   60/ 17/ 23 1020.4R   9/16   7/16
28.9N   78.5W              79 80   60/ 17/ 23 1021.0R  10/14   8/14
TRIDENT PIER               80 82   50/ 10/ 17 1021.4
28.4N   80.5W                 81                N/A     5/ 6   2/15
27.5N   80.2W                 82                N/A     8/14   5/14

$$
FLZ050-056-061-142-242-148-248-149-249-151-251-155-255-
160-260-220000-
WEST CENTRAL FLORIDA
  
CITY           SKY/WX    TMP DP  RH WIND       PRES   REMARKS
CRYSTAL RIVER  CLOUDY    81  64  57 E12G20    30.12S                  
INVERNESS      CLOUDY    79  68  69 NE9       30.13S                  
BROOKSVILLE    FAIR      82  63  52 E12       30.11R                  
CLEARWATER AIR FAIR      82  64  54 NE9G17    30.07S                  
ST PETE CLEARW FAIR      85  67  54 E16       30.07S                  
TAMPA INTL     FAIR      85  65  51 NE10G21   30.08S                  
TAMPA EXEC     FAIR      81  68  65 E9        30.10R                  
PLANT CITY     FAIR      82  70  65 NE14G21   30.12R                  
MACDILL AFB    FAIR      83  66  55 E21       30.07R                  
PETER O KNIGHT CLOUDY    84  68  58 E14G23    30.08S                  
ST PETERSBURG  FAIR      84  70  62 E22       30.06R                  
SARASOTA       FAIR      85  68  56 E16G22    30.04R                  
VENICE         FAIR      86  70  58 E20       30.05R                  

STATION/POSITION SKY/WX   TEMP    WIND        PRES    WAVE   SWELL
                          AIR SEA DIR/SP/G            HT/PER HT/PER
                          (F)     (DEG/KT/KT) (MB)    (FT/S) (FT/S)
27.3N   84.2W                 84                N/A     5/ 6
CLEARWATER BEACH           85 85   70/ 11/ 17 1018.3
MIDDLE TAMPA BAY           84      90/ 18/ 21 1018.2
VENICE                     85 84   70/ 10/ 13 1017.4R

$$
FLZ066-069-070-075>078-162-262-165-265-220000-
SOUTHWEST FLORIDA AND KEYS
  
CITY           SKY/WX    TMP DP  RH WIND       PRES   REMARKS
PUNTA GORDA    FAIR      83  69  62 E15       30.06R                  
FT MYERS       FAIR      85  69  58 E10G25    30.03R                  
SOUTHWEST INTL FAIR      84  70  62 E16G26    30.04R                  
NAPLES         FAIR      86  72  62 E16G25    30.02R                  
MARCO ISLAND   FAIR      84  72  67 E16       30.03R                  
IMMOKALEE      FAIR      82  72  69 NE16      30.03R                  
MARATHON       MOCLDY    79  73  82 NE24G37   29.97S                  
KEY WEST NAS   LGT RAIN  79  74  84 NE14G24   29.98R                  
KEY WEST INTL  LGT RAIN  79  73  82 NE14G25   29.98R                  

STATION/POSITION SKY/WX   TEMP    WIND        PRES    WAVE   SWELL
                          AIR SEA DIR/SP/G            HT/PER HT/PER
                          (F)     (DEG/KT/KT) (MB)    (FT/S) (FT/S)
NAPLES                     85 84   60/  8/ 17 1016.4
26.0N   85.6W              84 85   80/ 16/ 21 1016.4R   8/ 8
DRY TORTUGAS               84      80/ 26/ 27 1015.5R
SAND KEY                   80      70/ 29/ 33 1012.9
SOMBRERO KEY               80      50/ 26/ 32 1014.7
LONG KEY                   80                 1013.9

$$
FLZ067-068-071>074-168-172>174-220000-
SOUTHEAST FLORIDA 
  
CITY           SKY/WX    TMP DP  RH WIND       PRES   REMARKS
W PALM BEACH   MOCLDY    82  70  66 NE18G28   30.06R                  
BOCA RATON     PTCLDY    82  70  65 E21G29    30.05R                  
FT LAUDER-EXEC MOCLDY    82  71  69 NE15G25   30.03R                  
FT LAUDERDALE  MOCLDY    81  72  74 NE15G28   30.01S                  
POMPANO BEACH  MOCLDY    82  71  69 NE16G28   30.03S                  
PEMBROKE PINES CLOUDY    83  71  67 NE21G29   30.04S                  
OPA LOCKA      CLOUDY    82  72  71 NE20G26   30.03S                  
MIAMI          CLOUDY    81  72  74 NE13G23   30.02S                  
WEST KENDALL   LGT RAIN  75  74  96 NE9       30.02S FOG              
HOMESTEAD      FAIR      77  75  94 NE12      30.00S                  

STATION/POSITION SKY/WX   TEMP    WIND        PRES    WAVE   SWELL
                          AIR SEA DIR/SP/G            HT/PER HT/PER
                          (F)     (DEG/KT/KT) (MB)    (FT/S) (FT/S)
PORT EVERGLADES            82      50/ 21/ 27 1016.8R
VIRGINIA KEY                       40/  8/ 14   N/A
LAKE WORTH                 81 82   60/ 23/ 26 1018.7
FOWEY ROCKS